| time (UTC) | temp F | wind direction | speed knots | gust knots | rain 1hr in | rain 24hr in | rain mn in | humidity % | barometer mb |
| 20260502181645 | 63 | 13.9 | 13.9 | 0.00 | 0.00 | 0.00 | 52 | 1019.7 | |
| 20260502180643 | 63 | 13.0 | 13.9 | 0.00 | 0.00 | 0.00 | 50 | 1019.7 | |
| 20260502163636 | 69 | 13.0 | 13.9 | 0.00 | 0.00 | 0.00 | 45 | 1020.0 | |
| 20260502162635 | 69 | 13.0 | 13.9 | 0.00 | 0.00 | 0.00 | 45 | 1020.1 | |
| 20260502161634 | 69 | 13.0 | 14.8 | 0.00 | 0.00 | 0.00 | 44 | 1020.3 | |
| 20260502160633 | 69 | 13.0 | 13.9 | 0.00 | 0.00 | 0.00 | 42 | 1020.3 | |
| 20260502151628 | 70 | 13.0 | 13.9 | 0.00 | 0.00 | 0.00 | 43 | 1020.7 | |
| 20260502150628 | 70 | 13.0 | 13.9 | 0.00 | 0.00 | 0.00 | 43 | 1020.8 | |
| 20260502130619 | 71 | 13.0 | 13.9 | 0.00 | 0.00 | 0.00 | 45 | 1022.2 | |
| 20260502123617 | 72 | 13.0 | 13.9 | 0.00 | 0.00 | 0.00 | 42 | 1022.4 | |
| 20260502122616 | 74 | 13.0 | 13.9 | 0.00 | 0.00 | 0.00 | 40 | 1022.5 | |
| 20260502121616 | 73 | 13.0 | 13.9 | 0.00 | 0.00 | 0.00 | 41 | 1022.6 | |
| 20260502120615 | 71 | 13.0 | 13.9 | 0.00 | 0.00 | 0.00 | 42 | 1022.7 | |
| 20260502115614 | 70 | 13.0 | 14.8 | 0.00 | 0.00 | 0.00 | 42 | 1022.7 | |
| 20260502114613 | 71 | 13.0 | 14.8 | 0.00 | 0.00 | 0.00 | 40 | 1022.9 | |
| 20260502113612 | 70 | 13.0 | 14.8 | 0.00 | 0.00 | 0.00 | 42 | 1023.0 | |
| 20260502112611 | 70 | 13.0 | 13.9 | 0.00 | 0.00 | 0.00 | 42 | 1023.2 | |
| 20260502111609 | 72 | 13.0 | 13.9 | 0.00 | 0.00 | 0.00 | 37 | 1023.2 | |
| 20260502110609 | 70 | 13.0 | 14.8 | 0.00 | 0.00 | 0.00 | 36 | 1023.3 | |
| 20260502105607 | 74 | 13.9 | 13.0 | 0.00 | 0.00 | 0.00 | 32 | 1023.5 | |
| 20260502104606 | 72 | 13.0 | 13.9 | 0.00 | 0.00 | 0.00 | 34 | 1023.4 | |
| 20260502103605 | 73 | 13.0 | 13.9 | 0.00 | 0.00 | 0.00 | 34 | 1023.5 | |
| 20260502102605 | 71 | 13.0 | 13.9 | 0.00 | 0.00 | 0.00 | 34 | 1023.6 | |
| 20260502101603 | 75 | 13.0 | 13.9 | 0.00 | 0.00 | 0.00 | 32 | 1023.8 | |
| 20260502100602 | 74 | 13.0 | 14.8 | 0.00 | 0.00 | 0.00 | 31 | 1023.9 | |
| 20260502090558 | 75 | 13.0 | 13.0 | 0.00 | 0.00 | 0.00 | 28 | 1024.3 | |
| 20260502070548 | 77 | 13.0 | 14.8 | 0.00 | 0.00 | 0.00 | 27 | 1024.4 | |
| 20260502065547 | 76 | 13.0 | 13.9 | 0.00 | 0.00 | 0.00 | 28 | 1024.5 | |
| 20260502064546 | 74 | 13.0 | 13.9 | 0.00 | 0.00 | 0.00 | 29 | 1024.5 | |
| 20260502063545 | 74 | 13.0 | 13.9 | 0.00 | 0.00 | 0.00 | 29 | 1024.5 | |
| 20260502062545 | 77 | 13.0 | 14.8 | 0.00 | 0.00 | 0.00 | 28 | 1024.4 | |
| 20260502061544 | 81 | 13.0 | 13.9 | 0.00 | 0.00 | 0.00 | 25 | 1024.4 | |
| 20260502060543 | 83 | 13.0 | 13.9 | 0.00 | 0.00 | 0.00 | 24 | 1024.4 | |
| 20260502055542 | 80 | 13.0 | 13.9 | 0.00 | 0.00 | 0.00 | 26 | 1024.4 | |
| 20260502054542 | 82 | 13.0 | 14.8 | 0.00 | 0.00 | 0.00 | 24 | 1024.4 | |
| 20260502053541 | 77 | 13.0 | 14.8 | 0.00 | 0.00 | 0.00 | 28 | 1024.4 | |
| 20260502052540 | 77 | 13.0 | 14.8 | 0.00 | 0.00 | 0.00 | 27 | 1024.4 | |
| 20260502051540 | 86 | 13.0 | 14.8 | 0.00 | 0.00 | 0.00 | 21 | 1024.3 | |
| 20260502050539 | 86 | 13.0 | 13.9 | 0.00 | 0.00 | 0.00 | 22 | 1024.2 | |
| 20260502045539 | 83 | 13.0 | 14.8 | 0.00 | 0.00 | 0.00 | 23 | 1024.1 | |
| 20260502044538 | 78 | 13.0 | 13.9 | 0.00 | 0.00 | 0.00 | 26 | 1024.1 | |
| 20260502043538 | 74 | 13.0 | 13.9 | 0.00 | 0.00 | 0.00 | 28 | 1024.1 | |
| 20260502042537 | 64 | 13.0 | 14.8 | 0.00 | 0.00 | 0.00 | 36 | 1024.2 | |
| 20260502041537 | 55 | 13.0 | 14.8 | 0.00 | 0.00 | 0.00 | 47 | 1024.3 | |
| 20260502040536 | 48 | 13.0 | 13.9 | 0.00 | 0.00 | 0.00 | 58 | 1024.5 | |
| 20260502035535 | 47 | 13.9 | 13.9 | 0.00 | 0.00 | 0.00 | 58 | 1024.5 | |
| 20260502034533 | 47 | 13.0 | 14.8 | 0.00 | 0.00 | 0.00 | 62 | 1024.5 | |
| 20260502033533 | 46 | 13.0 | 13.9 | 0.00 | 0.00 | 0.00 | 64 | 1024.5 | |
| 20260502032532 | 46 | 13.0 | 13.0 | 0.00 | 0.00 | 0.00 | 62 | 1024.5 | |
| 20260502031530 | 46 | 13.0 | 13.9 | 0.00 | 0.00 | 0.00 | 62 | 1024.6 | |
| 20260502030529 | 46 | 13.0 | 13.9 | 0.00 | 0.00 | 0.00 | 60 | 1024.7 | |
| 20260502025528 | 47 | 13.0 | 13.9 | 0.00 | 0.00 | 0.00 | 58 | 1024.7 | |
| 20260502024527 | 47 | 13.9 | 13.9 | 0.00 | 0.00 | 0.00 | 57 | 1024.7 | |
| 20260502023527 | 48 | 13.0 | 14.8 | 0.00 | 0.00 | 0.00 | 55 | 1024.7 | |
| 20260502022526 | 48 | 13.0 | 13.9 | 0.00 | 0.00 | 0.00 | 55 | 1024.7 | |
| 20260502021525 | 48 | 13.0 | 13.9 | 0.00 | 0.00 | 0.00 | 56 | 1024.7 | |
| 20260502020524 | 48 | 13.0 | 14.8 | 0.00 | 0.00 | 0.00 | 55 | 1024.8 | |
| 20260502015524 | 48 | 13.0 | 14.8 | 0.00 | 0.00 | 0.00 | 56 | 1024.8 | |
| 20260502014523 | 49 | 13.0 | 13.9 | 0.00 | 0.00 | 0.00 | 53 | 1024.8 | |
| 20260502013522 | 49 | 13.0 | 14.8 | 0.00 | 0.00 | 0.00 | 52 | 1024.9 | |
| 20260502012521 | 49 | 13.0 | 13.9 | 0.00 | 0.00 | 0.00 | 52 | 1025.0 | |
| 20260502011520 | 49 | 13.0 | 14.8 | 0.00 | 0.00 | 0.00 | 52 | 1025.0 | |
| 20260502010519 | 50 | 13.0 | 13.9 | 0.00 | 0.00 | 0.00 | 51 | 1025.1 | |
| 20260502005518 | 50 | 13.0 | 13.9 | 0.00 | 0.00 | 0.00 | 50 | 1025.1 | |
| 20260502004517 | 51 | 13.9 | 13.9 | 0.00 | 0.00 | 0.00 | 49 | 1025.1 | |
| 20260502003516 | 51 | 13.0 | 14.8 | 0.00 | 0.00 | 0.00 | 48 | 1025.1 | |
| 20260502002516 | 51 | 13.9 | 13.9 | 0.00 | 0.00 | 0.00 | 48 | 1025.3 | |
| 20260502001515 | 51 | 13.0 | 14.8 | 0.00 | 0.00 | 0.00 | 48 | 1025.3 | |
| 20260502000515 | 51 | 13.0 | 13.9 | 0.00 | 0.00 | 0.00 | 48 | 1025.5 | |
| 20260501235514 | 51 | 13.0 | 13.9 | 0.00 | 0.00 | 0.00 | 47 | 1025.5 | |
| 20260501234513 | 51 | 13.0 | 14.8 | 0.00 | 0.00 | 0.00 | 47 | 1025.6 | |
| 20260501233513 | 51 | 13.0 | 13.9 | 0.00 | 0.00 | 0.00 | 48 | 1025.6 | |
| 20260501232512 | 51 | 13.0 | 14.8 | 0.00 | 0.00 | 0.00 | 47 | 1025.6 | |
| 20260501231511 | 51 | 13.0 | 13.9 | 0.00 | 0.00 | 0.00 | 47 | 1025.7 | |
| 20260501230510 | 52 | 13.0 | 14.8 | 0.00 | 0.00 | 0.00 | 47 | 1025.7 | |
| 20260501225510 | 51 | 13.9 | 13.9 | 0.00 | 0.00 | 0.00 | 46 | 1025.7 | |
| 20260501224508 | 52 | 13.0 | 14.8 | 0.00 | 0.00 | 0.00 | 45 | 1025.8 | |
| 20260501223507 | 52 | 13.0 | 13.9 | 0.00 | 0.00 | 0.00 | 45 | 1025.8 | |
| 20260501222506 | 52 | 13.9 | 14.8 | 0.00 | 0.00 | 0.00 | 44 | 1025.9 | |
| 20260501221505 | 52 | 13.0 | 13.0 | 0.00 | 0.00 | 0.00 | 44 | 1026.0 | |
| 20260501220504 | 52 | 13.0 | 13.9 | 0.00 | 0.00 | 0.00 | 43 | 1025.9 | |
| 20260501215503 | 52 | 0.0 | 14.8 | 0.00 | 0.00 | 0.00 | 42 | 1025.9 | |
| 20260501215039 | 53 | 13.0 | 13.9 | 0.00 | 0.00 | 0.00 | 42 | 1025.9 | |
| 20260501214035 | 53 | 13.0 | 14.8 | 0.00 | 0.00 | 0.00 | 41 | 1025.8 | |
| 20260501213030 | 53 | 13.0 | 13.9 | 0.00 | 0.00 | 0.00 | 41 | 1025.7 | |
| 20260501212026 | 54 | 13.0 | 13.9 | 0.00 | 0.00 | 0.00 | 41 | 1025.7 | |
| 20260501211020 | 54 | 13.0 | 14.8 | 0.00 | 0.00 | 0.00 | 40 | 1025.7 | |
| 20260501210016 | 54 | 13.0 | 13.9 | 0.00 | 0.00 | 0.00 | 39 | 1025.7 | |
| 20260501205011 | 55 | 13.9 | 13.9 | 0.00 | 0.00 | 0.00 | 38 | 1025.7 | |
| 20260501204006 | 55 | 13.0 | 13.9 | 0.00 | 0.00 | 0.00 | 38 | 1025.8 | |
| 20260501203001 | 55 | 13.0 | 13.9 | 0.00 | 0.00 | 0.00 | 37 | 1025.9 | |
| 20260501201956 | 56 | 13.0 | 13.9 | 0.00 | 0.00 | 0.00 | 36 | 1025.8 | |
| 20260501200951 | 56 | 13.0 | 13.9 | 0.00 | 0.00 | 0.00 | 37 | 1025.7 | |
| 20260501195947 | 55 | 13.9 | 13.9 | 0.00 | 0.00 | 0.00 | 37 | 1025.7 | |
| 20260501194941 | 56 | 13.0 | 13.9 | 0.00 | 0.00 | 0.00 | 37 | 1025.6 | |
| 20260501193937 | 56 | 13.0 | 14.8 | 0.00 | 0.00 | 0.00 | 37 | 1025.7 | |
| 20260501192932 | 55 | 13.0 | 13.9 | 0.00 | 0.00 | 0.00 | 37 | 1025.5 | |
| 20260501191927 | 56 | 13.0 | 13.9 | 0.00 | 0.00 | 0.00 | 36 | 1025.5 | |
| 20260501190921 | 56 | 13.0 | 14.8 | 0.00 | 0.00 | 0.00 | 38 | 1025.6 | |
| 20260501185916 | 57 | 13.0 | 13.9 | 0.00 | 0.00 | 0.00 | 35 | 1025.5 | |
| 20260501184911 | 57 | 13.0 | 13.9 | 0.00 | 0.00 | 0.00 | 35 | 1025.4 | |
| 20260501183906 | 58 | 13.0 | 13.9 | 0.00 | 0.00 | 0.00 | 34 | 1025.4 | |
| 20260501182900 | 59 | 13.0 | 13.9 | 0.00 | 0.00 | 0.00 | 34 | 1025.4 |